Lexington Weather

Lexington, Massachusetts, USA

66°F
9/23/2021 3:52am 
  • Lexington Conditions: Few Clouds
  • Temperature: 66.4°F / 19.1°CWarmer 0.2°F than last hour.
  • Dew Point: 65.1°FIncreased 0.2°Fsince last hour.
  • Relative Humidity: 96
  • Wind: Calm, 10-min avg: Calm, gust: 3 mph
  • Barometer: 30.04 in Steady
  • Visibility: 10 miles
  • Rain Today: 0.00 in
  •   

Regional Weather Roundup
for Boston / Norton, MA

        
000
ASUS41 KBOX 202304
RWRBOX

REGIONAL WEATHER ROUNDUP
NATIONAL WEATHER SERVICE BOSTON/NORTON MA
700 PM EDT MON SEP 20 2021

NOTE:  "FAIR" INDICATES FEW OR NO CLOUDS BELOW 12,000 FEET WITH NO 
SIGNIFICANT WEATHER AND/OR OBSTRUCTIONS TO VISIBILITY.

MAZALL-210000-
EASTERN MASSACHUSETTS
  
CITY           SKY/WX    TMP DP  RH WIND       PRES   REMARKS
BOSTON         PTCLDY    65  55  70 E9        30.40R                  
BEVERLY        CLEAR     62  54  74 SE6       30.39R                  
LAWRENCE       CLEAR     64  52  64 E5        30.41R                  
BEDFORD        CLEAR     64  50  60 E9        30.38R                  
BLUE HILL      NOT AVBL                                               
NORWOOD        CLEAR     64  49  57 CALM      30.39R                  
MARSHFIELD     CLEAR     63  55  77 E3        30.39S                  
PLYMOUTH       CLEAR     61  54  77 E3        30.39S                  
TAUNTON        CLEAR     63  53  70 E3        30.38R                  
NEW BEDFORD    CLEAR     64  53  67 E6        30.38R                  
$$

MAZALL-210000-
CAPE COD AND THE ISLANDS
  
CITY           SKY/WX    TMP DP  RH WIND       PRES   REMARKS
FALMOUTH       CLEAR     63  55  77 NE6       30.39R                  
HYANNIS        CLEAR     62  54  74 E3        30.38R                  
CHATHAM        CLEAR     63  47  55 E6        30.41R                  
PROVINCETOWN   CLEAR     61  55  81 E6        30.41R                  
NANTUCKET      CLEAR     62  46  55 NE7       30.39R                  
MARTHAS VNYRD  CLEAR     61  53  75 E3        30.39R                  
$$
 
MAZALL-210000-
CENTRAL AND WESTERN MASSACHUSETTS
  
CITY           SKY/WX    TMP DP  RH WIND       PRES   REMARKS
WORCESTER      CLEAR     67  52  58 SE7       30.39R                  
FITCHBURG      CLEAR     67  54  63 SE6       30.38R                  
ORANGE         CLEAR     65  59  81 CALM      30.37R                  
SPRINGFIELD    PTCLDY    68  57  67 S3        30.34R                  
WESTFIELD      CLEAR     65  61  87 SE5       30.34S                  
NORTH ADAMS    MOCLDY    69  57  65 SE8       30.34R                  
PITTSFIELD     CLEAR     63  55  75 S7        30.34S                  
$$
 
RIZALL-210000-
RHODE ISLAND
  
CITY           SKY/WX    TMP DP  RH WIND       PRES   REMARKS
PROVIDENCE     PTCLDY    66  57  72 S5        30.38R                  
NEWPORT        CLEAR     64  54  69 SE5       30.38R                  
SMITHFIELD     PTCLDY    64  55  72 VRB3      30.39R                  
WESTERLY       CLEAR     63  57  81 E3        30.37S                  
$$
 
CTZALL-210000-
CONNECTICUT
  
CITY           SKY/WX    TMP DP  RH WIND       PRES   REMARKS
BRADLEY INTL   PTCLDY    68  56  65 S10       30.35R                  
HARTFORD       CLEAR     68  54  60 SE5       30.35R                  
BRIDGEPORT     CLEAR     69  54  58 SE7       30.35S                  
DANBURY        PTCLDY    67  56  67 SE5       30.36S                  
GROTON         CLEAR     65  56  72 SE3       30.37R                  
NEW HAVEN      CLEAR     70  55  59 SE7       30.36S                  
CHESTER        FAIR      63  57  82 CALM      30.38R                  
MERIDEN        CLEAR     66  54  65 CALM      30.36R                  
WILLIMANTIC    CLEAR     66  53  63 SE3       30.38R                  
OXFORD         CLEAR     63  56  78 SE7       30.37S                  
$$

MEZ002-015-021-024-NHZ003-005-008-011-012-014-VTZ005-008-210000-
NORTHERN NEW ENGLAND
  
CITY           SKY/WX    TMP DP  RH WIND       PRES   REMARKS
PORTLAND ME    CLEAR     61  53  75 SE5       30.41R                  
BANGOR ME      PTCLDY    61  49  64 S6        30.40R                  
CONCORD NH     CLEAR     64  56  75 SE6       30.38R                  
MANCHESTER NH  PTCLDY    68  52  56 SE10      30.36R                  
NASHUA NH      CLEAR     67  54  63 SE5       30.39R                  
PORTSMOUTH NH  PTCLDY    61  50  65 SE8       30.41R                  
JAFFREY NH     CLEAR     63  59  87 CALM      30.39R                  
KEENE NH       CLEAR     64  60  87 CALM      30.36R                  
BURLINGTON VT  PTCLDY    71  54  54 S6        30.29S                  
MT. WASHINGTON NOT AVBL                                               
$$

NYZ052-076-210000-
EASTERN NEW YORK
  
CITY           SKY/WX    TMP DP  RH WIND       PRES   REMARKS
ALBANY         PTCLDY    67  56  67 SE6       30.31S                  
NEW YORK CITY  MOCLDY    71  52  50 SE12      30.33S                  
$$
 
ANZALL-210000-
MARINE OBSERVATIONS
  
STATION/POSITION TIME  TEMP    WIND        PRES    VSBY  WAVE
                       AIR SEA DIR/SP/G                  HT/PER
                 (UTC) (F)     (DEG/KT/KT) (MB)    (MI)  (FT/S)
BOSTON BUOY      2240      66  110/ 10/ 12 1029.6S
BUZZARDS BAY     2200          120/ 12/ 12 1029.6R
NANTUCKET SOUND  2240   66 72   80/ 10/ 14 1028.9R
MASS BAY-STELLWA 2204   65     140/ 10/ 12 1029.3R  1 7/8  3/11
ISLE OF SHOALS   2200   65     140/ 14/ 15 1028.6R
S OF BLOCK IS    2226      71                N/A           3/10
$$

......................KEY.........................
  SKY/WX - SKY CONDITION/PRESENT WEATHER
  TMP    - TEMPERATURE IN FAHRENHEIT
  DWPT   - DEWPOINT IN FAHRENHEIT
  RH     - RELATIVE HUMIDITY IN PERCENT
  WIND   - DIRECTION AND SPEED IN MPH
  PRES   - MEAN SEA LEVEL PRESSURE IN INCHES OF HG
  WCI    - WIND CHILL INDEX
  VSB    - VISIBILITY IN MILES
  HX     - HEAT INDEX
  TC     - TEMPERATURE IN CELSIUS
  VRB    - VARIABLE WIND DIRECTION
  N/A    - NOT AVAILABLE
  
      

Other recent Regional Weather Roundups

Thu Sep 23, 3:04am

Thu Sep 23, 2:04am

Thu Sep 23, 1:04am

Thu Sep 23, 12:04am

Wed Sep 22, 11:04pm

Wed Sep 22, 10:04pm

Wed Sep 22, 9:04pm

Wed Sep 22, 8:04pm

Wed Sep 22, 7:04pm

Wed Sep 22, 6:04pm

Wed Sep 22, 5:04pm

Wed Sep 22, 4:04pm

Wed Sep 22, 3:04pm

Wed Sep 22, 2:04pm

Wed Sep 22, 1:04pm

Wed Sep 22, 12:05pm

Wed Sep 22, 11:04am

Wed Sep 22, 10:04am

Wed Sep 22, 9:04am

Wed Sep 22, 8:04am

Wed Sep 22, 7:04am

Wed Sep 22, 6:04am

Wed Sep 22, 5:04am

Wed Sep 22, 4:04am

Wed Sep 22, 3:04am

Wed Sep 22, 2:04am

Wed Sep 22, 1:04am

Wed Sep 22, 12:04am

Tue Sep 21, 11:04pm

Tue Sep 21, 10:04pm

Tue Sep 21, 9:04pm

Tue Sep 21, 8:04pm

Tue Sep 21, 7:04pm

Tue Sep 21, 6:04pm

Tue Sep 21, 5:04pm

Tue Sep 21, 4:04pm

Tue Sep 21, 3:04pm

Tue Sep 21, 2:04pm

Tue Sep 21, 1:04pm

Tue Sep 21, 12:04pm

Tue Sep 21, 11:04am

Tue Sep 21, 10:04am

Tue Sep 21, 9:04am

Tue Sep 21, 8:04am

Tue Sep 21, 7:04am

Tue Sep 21, 6:04am

Tue Sep 21, 5:04am

Tue Sep 21, 4:04am

Tue Sep 21, 3:04am

Tue Sep 21, 2:04am

Tue Sep 21, 1:04am

Tue Sep 21, 12:04am

Mon Sep 20, 11:04pm

Mon Sep 20, 10:04pm

Mon Sep 20, 9:04pm

Mon Sep 20, 8:04pm

Mon Sep 20, 6:04pm

Mon Sep 20, 5:04pm

Mon Sep 20, 4:04pm

Mon Sep 20, 3:04pm

Mon Sep 20, 2:04pm

Mon Sep 20, 1:04pm

Mon Sep 20, 12:04pm

Mon Sep 20, 11:04am

Mon Sep 20, 10:04am

Mon Sep 20, 9:04am

Mon Sep 20, 7:04am

Mon Sep 20, 6:04am

Mon Sep 20, 5:04am

Mon Sep 20, 4:04am

Mon Sep 20, 3:04am

Mon Sep 20, 2:04am

Mon Sep 20, 1:04am

Mon Sep 20, 12:04am

Sun Sep 19, 11:04pm

Sun Sep 19, 10:04pm

Sun Sep 19, 9:04pm

Sun Sep 19, 8:04pm

Sun Sep 19, 7:04pm

Sun Sep 19, 6:04pm

Sun Sep 19, 5:04pm

Sun Sep 19, 4:04pm

Sun Sep 19, 3:04pm

Sun Sep 19, 2:05pm

Sun Sep 19, 1:04pm

Sun Sep 19, 12:04pm

Sun Sep 19, 11:04am

Sun Sep 19, 10:05am

Sun Sep 19, 9:04am

Sun Sep 19, 8:04am

Sun Sep 19, 7:04am

Sun Sep 19, 6:04am

Sun Sep 19, 5:04am

Sun Sep 19, 4:04am

Sun Sep 19, 3:04am

Sun Sep 19, 2:04am

Sun Sep 19, 1:04am

Sun Sep 19, 12:04am

Sat Sep 18, 11:05pm

Sat Sep 18, 10:04pm

Sat Sep 18, 9:04pm

Sat Sep 18, 8:04pm

Sat Sep 18, 7:04pm

Sat Sep 18, 6:04pm

Sat Sep 18, 5:04pm

Sat Sep 18, 4:04pm

Sat Sep 18, 3:04pm

Sat Sep 18, 2:04pm

Sat Sep 18, 1:04pm

Sat Sep 18, 12:04pm

Sat Sep 18, 11:04am

Sat Sep 18, 10:04am

Sat Sep 18, 9:04am

Sat Sep 18, 8:04am

Sat Sep 18, 7:04am

Sat Sep 18, 6:04am

Sat Sep 18, 5:04am

Sat Sep 18, 4:04am

Sat Sep 18, 3:04am

Sat Sep 18, 2:04am

Sat Sep 18, 1:04am

Sat Sep 18, 12:04am

Fri Sep 17, 11:04pm

Fri Sep 17, 10:04pm

Fri Sep 17, 9:04pm

Fri Sep 17, 8:04pm

Fri Sep 17, 7:04pm

Fri Sep 17, 6:04pm

Fri Sep 17, 5:04pm

Fri Sep 17, 4:04pm

Fri Sep 17, 3:04pm

Fri Sep 17, 2:04pm

Fri Sep 17, 1:04pm

Fri Sep 17, 12:05pm

Fri Sep 17, 11:04am

Fri Sep 17, 10:04am

Fri Sep 17, 9:04am

Fri Sep 17, 8:04am

Fri Sep 17, 7:04am

Fri Sep 17, 6:04am

Fri Sep 17, 5:04am

Fri Sep 17, 4:04am

Fri Sep 17, 3:04am

Fri Sep 17, 2:04am

Fri Sep 17, 1:04am

Fri Sep 17, 12:04am

Thu Sep 16, 11:04pm

Thu Sep 16, 10:04pm

Thu Sep 16, 9:04pm

Thu Sep 16, 8:04pm

Thu Sep 16, 7:04pm

Thu Sep 16, 6:04pm

Thu Sep 16, 5:04pm

Thu Sep 16, 4:04pm

Thu Sep 16, 3:04pm

Thu Sep 16, 2:04pm

Thu Sep 16, 1:05pm

Thu Sep 16, 12:04pm

Thu Sep 16, 11:05am

Thu Sep 16, 10:05am

Thu Sep 16, 9:04am

Thu Sep 16, 8:04am

Thu Sep 16, 7:04am

Thu Sep 16, 6:04am

Thu Sep 16, 5:04am

Thu Sep 16, 4:04am

Meta data:

ID: f0686d78-b274-4cbc-a026-aec917745d72
Link: https://api.weather.gov/products/f0686d78-b274-4cbc-a026-aec917745d72